| time (UTC) | temp F | wind direction | speed MPH | gust MPH | rain 1hr in | rain 24hr in | rain mn in | humidity % | barometer mb |
| 20260505034543 | 55 | 108 | 9.0 | 11.0 | 0.02 | 0.07 | 0.00 | 87 | 1015.0 |
| 20260505034043 | 55 | 153 | 5.0 | 8.0 | 0.01 | 0.06 | 0.00 | 87 | 1014.9 |
| 20260505033543 | 56 | 164 | 4.0 | 6.0 | 0.02 | 0.06 | 0.00 | 87 | 1015.0 |
| 20260505033046 | 56 | 155 | 0.0 | 6.0 | 0.03 | 0.06 | 0.00 | 86 | 1015.0 |
| 20260505032543 | 56 | 151 | 1.0 | 7.0 | 0.03 | 0.06 | 0.00 | 86 | 1014.8 |
| 20260505032043 | 56 | 164 | 5.0 | 7.0 | 0.03 | 0.05 | 0.00 | 86 | 1014.7 |
| 20260505031543 | 56 | 166 | 5.0 | 7.0 | 0.03 | 0.05 | 0.00 | 86 | 1014.7 |
| 20260505031043 | 56 | 142 | 3.0 | 8.0 | 0.03 | 0.05 | 0.00 | 86 | 1014.8 |
| 20260505030543 | 56 | 166 | 3.0 | 6.0 | 0.03 | 0.05 | 0.00 | 86 | 1014.8 |
| 20260505030043 | 56 | 163 | 2.0 | 7.0 | 0.03 | 0.05 | 0.00 | 85 | 1014.7 |
| 20260505025546 | 56 | 163 | 2.0 | 5.0 | 0.03 | 0.05 | 0.00 | 85 | 1014.8 |
| 20260505025043 | 56 | 161 | 4.0 | 5.0 | 0.02 | 0.04 | 0.00 | 85 | 1014.8 |
| 20260505024543 | 56 | 142 | 2.0 | 6.0 | 0.02 | 0.04 | 0.00 | 85 | 1014.8 |
| 20260505024043 | 57 | 154 | 4.0 | 7.0 | 0.02 | 0.04 | 0.00 | 85 | 1014.8 |
| 20260505023543 | 57 | 160 | 4.0 | 5.0 | 0.01 | 0.03 | 0.00 | 85 | 1014.9 |
| 20260505023043 | 57 | 151 | 3.0 | 4.0 | 0.00 | 0.03 | 0.00 | 85 | 1014.9 |
| 20260505022543 | 57 | 150 | 2.0 | 6.0 | 0.00 | 0.03 | 0.00 | 84 | 1014.8 |
| 20260505022043 | 57 | 169 | 4.0 | 7.0 | 0.00 | 0.02 | 0.00 | 84 | 1014.9 |
| 20260505021544 | 57 | 158 | 3.0 | 6.0 | 0.00 | 0.02 | 0.00 | 84 | 1014.9 |
| 20260505021044 | 57 | 155 | 3.0 | 7.0 | 0.00 | 0.02 | 0.00 | 84 | 1014.8 |
| 20260505020546 | 57 | 143 | 3.0 | 8.0 | 0.00 | 0.02 | 0.00 | 84 | 1014.9 |
| 20260505020043 | 57 | 152 | 3.0 | 9.0 | 0.00 | 0.02 | 0.00 | 84 | 1014.9 |
| 20260505015543 | 57 | 163 | 4.0 | 12.0 | 0.00 | 0.02 | 0.00 | 83 | 1015.0 |
| 20260505015046 | 57 | 142 | 8.0 | 12.0 | 0.00 | 0.02 | 0.00 | 83 | 1015.0 |
| 20260505014546 | 58 | 156 | 8.0 | 9.0 | 0.00 | 0.02 | 0.00 | 82 | 1015.1 |
| 20260505014043 | 58 | 161 | 6.0 | 9.0 | 0.00 | 0.02 | 0.00 | 82 | 1015.2 |
| 20260505013543 | 58 | 162 | 4.0 | 9.0 | 0.00 | 0.02 | 0.00 | 82 | 1015.3 |
| 20260505013043 | 58 | 165 | 5.0 | 8.0 | 0.00 | 0.02 | 0.00 | 82 | 1015.3 |
| 20260505012543 | 58 | 165 | 4.0 | 6.0 | 0.00 | 0.02 | 0.00 | 82 | 1015.3 |
| 20260505012043 | 58 | 138 | 5.0 | 6.0 | 0.00 | 0.02 | 0.00 | 82 | 1015.3 |
| 20260505011543 | 58 | 168 | 4.0 | 6.0 | 0.01 | 0.02 | 0.00 | 82 | 1015.3 |
| 20260505011043 | 58 | 169 | 4.0 | 5.0 | 0.01 | 0.02 | 0.00 | 81 | 1015.3 |
| 20260505010543 | 58 | 169 | 2.0 | 5.0 | 0.02 | 0.02 | 0.00 | 81 | 1015.4 |
| 20260505010044 | 58 | 170 | 2.0 | 5.0 | 0.02 | 0.02 | 0.00 | 80 | 1015.4 |
| 20260505005543 | 58 | 159 | 4.0 | 5.0 | 0.02 | 0.02 | 0.00 | 80 | 1015.5 |
| 20260505005043 | 58 | 159 | 2.0 | 5.0 | 0.02 | 0.02 | 0.00 | 79 | 1015.4 |
| 20260505004543 | 58 | 159 | 2.0 | 5.0 | 0.01 | 0.01 | 0.00 | 79 | 1015.4 |
| 20260505004043 | 59 | 159 | 2.0 | 5.0 | 0.01 | 0.01 | 0.00 | 78 | 1015.4 |
| 20260505003543 | 59 | 159 | 2.0 | 5.0 | 0.01 | 0.01 | 0.00 | 77 | 1015.5 |
| 20260505003043 | 59 | 159 | 1.0 | 5.0 | 0.01 | 0.01 | 0.00 | 77 | 1015.5 |
| 20260505002546 | 59 | 163 | 2.0 | 4.0 | 0.01 | 0.01 | 0.00 | 76 | 1015.5 |
| 20260505002046 | 60 | 163 | 1.0 | 4.0 | 0.01 | 0.01 | 0.00 | 75 | 1015.6 |
| 20260505001543 | 60 | 163 | 2.0 | 4.0 | 0.00 | 0.00 | 0.00 | 74 | 1015.8 |
| 20260505001043 | 60 | 163 | 1.0 | 4.0 | 0.00 | 0.00 | 0.00 | 74 | 1015.8 |
| 20260505000543 | 60 | 163 | 1.0 | 2.0 | 0.00 | 0.00 | 0.00 | 74 | 1015.8 |
| 20260505000043 | 60 | 163 | 1.0 | 4.0 | 0.00 | 0.00 | 0.00 | 73 | 1015.8 |
| 20260504235546 | 60 | 163 | 1.0 | 5.0 | 0.00 | 0.00 | 0.00 | 73 | 1015.8 |
| 20260504235046 | 60 | 164 | 4.0 | 5.0 | 0.00 | 0.00 | 0.00 | 74 | 1015.8 |
| 20260504234543 | 60 | 117 | 3.0 | 6.0 | 0.00 | 0.00 | 0.00 | 75 | 1015.8 |
| 20260504234046 | 60 | 113 | 4.0 | 7.0 | 0.00 | 0.00 | 0.00 | 75 | 1015.9 |
| 20260504233546 | 60 | 134 | 2.0 | 5.0 | 0.00 | 0.00 | 0.00 | 75 | 1016.0 |
| 20260504233043 | 60 | 126 | 3.0 | 4.0 | 0.00 | 0.00 | 0.00 | 76 | 1016.1 |
| 20260504232543 | 60 | 127 | 3.0 | 3.0 | 0.00 | 0.00 | 0.00 | 77 | 1016.2 |
| 20260504232046 | 60 | 127 | 1.0 | 2.0 | 0.00 | 0.00 | 0.00 | 77 | 1016.3 |
| 20260504231546 | 60 | 127 | 0.0 | 3.0 | 0.00 | 0.00 | 0.00 | 77 | 1016.3 |
| 20260504231043 | 60 | 119 | 3.0 | 4.0 | 0.00 | 0.00 | 0.00 | 77 | 1016.3 |
| 20260504230543 | 60 | 119 | 4.0 | 4.0 | 0.00 | 0.00 | 0.00 | 78 | 1016.4 |
| 20260504230043 | 60 | 114 | 2.0 | 4.0 | 0.00 | 0.00 | 0.00 | 78 | 1016.5 |
| 20260504225543 | 60 | 115 | 3.0 | 6.0 | 0.00 | 0.00 | 0.00 | 78 | 1016.6 |
| 20260504225043 | 60 | 130 | 3.0 | 6.0 | 0.00 | 0.00 | 0.00 | 78 | 1016.5 |
| 20260504224543 | 60 | 122 | 2.0 | 7.0 | 0.00 | 0.00 | 0.00 | 78 | 1016.6 |
| 20260504224043 | 60 | 120 | 3.0 | 5.0 | 0.00 | 0.00 | 0.00 | 78 | 1016.6 |
| 20260504223543 | 60 | 121 | 4.0 | 5.0 | 0.00 | 0.00 | 0.00 | 79 | 1016.6 |
| 20260504223046 | 60 | 144 | 3.0 | 7.0 | 0.00 | 0.00 | 0.00 | 79 | 1016.6 |
| 20260504222543 | 60 | 128 | 2.0 | 6.0 | 0.00 | 0.00 | 0.00 | 79 | 1016.6 |
| 20260504222043 | 60 | 107 | 4.0 | 6.0 | 0.00 | 0.00 | 0.00 | 79 | 1016.5 |
| 20260504221543 | 60 | 118 | 2.0 | 4.0 | 0.00 | 0.00 | 0.00 | 80 | 1016.6 |
| 20260504221046 | 60 | 145 | 2.0 | 4.0 | 0.00 | 0.00 | 0.00 | 80 | 1016.6 |
| 20260504220543 | 60 | 142 | 3.0 | 4.0 | 0.00 | 0.00 | 0.00 | 80 | 1016.7 |
| 20260504220043 | 60 | 142 | 1.0 | 2.0 | 0.00 | 0.00 | 0.00 | 80 | 1016.7 |
| 20260504215543 | 59 | 142 | 1.0 | 3.0 | 0.00 | 0.00 | 0.00 | 80 | 1016.7 |
| 20260504215046 | 59 | 142 | 1.0 | 3.0 | 0.00 | 0.00 | 0.00 | 80 | 1016.7 |
| 20260504214546 | 59 | 142 | 3.0 | 5.0 | 0.00 | 0.00 | 0.00 | 80 | 1016.6 |
| 20260504214043 | 59 | 98 | 4.0 | 6.0 | 0.00 | 0.00 | 0.00 | 80 | 1016.6 |
| 20260504213543 | 59 | 129 | 3.0 | 4.0 | 0.00 | 0.00 | 0.00 | 80 | 1016.7 |
| 20260504213043 | 59 | 141 | 3.0 | 4.0 | 0.00 | 0.00 | 0.00 | 80 | 1016.7 |
| 20260504212543 | 59 | 138 | 2.0 | 4.0 | 0.00 | 0.00 | 0.00 | 80 | 1016.8 |
| 20260504212043 | 60 | 139 | 4.0 | 4.0 | 0.00 | 0.00 | 0.00 | 80 | 1016.8 |
| 20260504211543 | 60 | 142 | 3.0 | 4.0 | 0.00 | 0.00 | 0.00 | 80 | 1016.7 |
| 20260504211046 | 60 | 148 | 4.0 | 4.0 | 0.00 | 0.00 | 0.00 | 79 | 1016.8 |
| 20260504210543 | 60 | 154 | 1.0 | 4.0 | 0.00 | 0.00 | 0.00 | 79 | 1016.8 |
| 20260504210043 | 60 | 154 | 2.0 | 4.0 | 0.00 | 0.00 | 0.00 | 79 | 1016.9 |
| 20260504205543 | 60 | 154 | 2.0 | 3.0 | 0.00 | 0.00 | 0.00 | 79 | 1016.9 |
| 20260504205043 | 60 | 154 | 1.0 | 4.0 | 0.00 | 0.00 | 0.00 | 79 | 1016.9 |
| 20260504204543 | 60 | 154 | 2.0 | 4.0 | 0.00 | 0.00 | 0.00 | 79 | 1016.9 |
| 20260504204043 | 60 | 155 | 3.0 | 5.0 | 0.00 | 0.00 | 0.00 | 79 | 1016.9 |
| 20260504203543 | 60 | 159 | 4.0 | 5.0 | 0.00 | 0.00 | 0.00 | 79 | 1017.1 |
| 20260504203043 | 60 | 159 | 1.0 | 6.0 | 0.00 | 0.00 | 0.00 | 79 | 1017.1 |
| 20260504202543 | 60 | 159 | 2.0 | 5.0 | 0.00 | 0.00 | 0.00 | 79 | 1017.2 |
| 20260504202043 | 60 | 159 | 4.0 | 5.0 | 0.00 | 0.00 | 0.00 | 79 | 1017.1 |
| 20260504201543 | 60 | 161 | 2.0 | 5.0 | 0.00 | 0.00 | 0.00 | 79 | 1017.1 |
| 20260504201043 | 61 | 160 | 2.0 | 5.0 | 0.00 | 0.00 | 0.00 | 79 | 1017.1 |
| 20260504200543 | 61 | 144 | 1.0 | 5.0 | 0.00 | 0.00 | 0.00 | 78 | 1017.0 |
| 20260504200043 | 61 | 158 | 3.0 | 5.0 | 0.00 | 0.00 | 0.00 | 78 | 1017.0 |
| 20260504195543 | 61 | 153 | 1.0 | 6.0 | 0.00 | 0.00 | 0.00 | 78 | 1016.9 |
| 20260504195046 | 61 | 162 | 1.0 | 6.0 | 0.00 | 0.00 | 0.00 | 78 | 1016.9 |
| 20260504194546 | 61 | 157 | 6.0 | 6.0 | 0.00 | 0.00 | 0.00 | 77 | 1016.9 |
| 20260504194043 | 61 | 154 | 2.0 | 6.0 | 0.00 | 0.00 | 0.00 | 77 | 1017.0 |
| 20260504193543 | 61 | 157 | 1.0 | 3.0 | 0.00 | 0.00 | 0.00 | 77 | 1016.9 |
| 20260504193043 | 61 | 157 | 3.0 | 5.0 | 0.00 | 0.00 | 0.00 | 77 | 1016.8 |
| 20260504192543 | 61 | 167 | 3.0 | 5.0 | 0.00 | 0.00 | 0.00 | 77 | 1016.8 |
| 20260504192043 | 61 | 168 | 1.0 | 5.0 | 0.00 | 0.00 | 0.00 | 77 | 1016.9 |
| 20260504191543 | 62 | 169 | 2.0 | 6.0 | 0.00 | 0.00 | 0.00 | 77 | 1017.0 |
| 20260504191043 | 62 | 167 | 3.0 | 4.0 | 0.00 | 0.00 | 0.00 | 78 | 1016.8 |
| 20260504190543 | 62 | 167 | 3.0 | 5.0 | 0.00 | 0.00 | 0.00 | 78 | 1016.8 |
| 20260504190046 | 62 | 167 | 1.0 | 4.0 | 0.00 | 0.00 | 0.00 | 78 | 1016.8 |
| 20260504185543 | 62 | 167 | 3.0 | 5.0 | 0.00 | 0.00 | 0.00 | 78 | 1016.7 |
| 20260504185043 | 62 | 167 | 3.0 | 5.0 | 0.00 | 0.00 | 0.00 | 78 | 1016.7 |
| 20260504184543 | 62 | 167 | 4.0 | 5.0 | 0.00 | 0.00 | 0.00 | 79 | 1016.7 |
| 20260504184046 | 62 | 167 | 3.0 | 4.0 | 0.00 | 0.00 | 0.00 | 78 | 1016.7 |
| 20260504183543 | 62 | 167 | 1.0 | 4.0 | 0.00 | 0.00 | 0.00 | 78 | 1016.7 |
| 20260504183046 | 62 | 167 | 3.0 | 5.0 | 0.00 | 0.00 | 0.00 | 78 | 1016.6 |
| 20260504182543 | 62 | 167 | 1.0 | 5.0 | 0.00 | 0.00 | 0.00 | 78 | 1016.6 |
| 20260504182043 | 62 | 175 | 1.0 | 5.0 | 0.00 | 0.00 | 0.00 | 78 | 1016.5 |
| 20260504181543 | 62 | 163 | 2.0 | 5.0 | 0.00 | 0.00 | 0.00 | 78 | 1016.5 |
| 20260504181043 | 62 | 152 | 2.0 | 5.0 | 0.00 | 0.00 | 0.00 | 78 | 1016.5 |
| 20260504180546 | 62 | 159 | 2.0 | 6.0 | 0.00 | 0.00 | 0.00 | 78 | 1016.4 |
| 20260504180043 | 62 | 161 | 2.0 | 7.0 | 0.00 | 0.00 | 0.00 | 78 | 1016.5 |
| 20260504175546 | 62 | 185 | 2.0 | 8.0 | 0.00 | 0.00 | 0.00 | 77 | 1016.6 |
| 20260504175043 | 62 | 157 | 6.0 | 7.0 | 0.00 | 0.00 | 0.00 | 77 | 1016.6 |
| 20260504174543 | 62 | 163 | 5.0 | 7.0 | 0.00 | 0.00 | 0.00 | 77 | 1016.7 |
| 20260504174043 | 62 | 165 | 4.0 | 8.0 | 0.00 | 0.00 | 0.00 | 76 | 1016.6 |
| 20260504173543 | 63 | 174 | 6.0 | 9.0 | 0.00 | 0.00 | 0.00 | 76 | 1016.6 |
| 20260504173043 | 63 | 171 | 4.0 | 7.0 | 0.00 | 0.00 | 0.00 | 76 | 1016.5 |
| 20260504172543 | 63 | 177 | 2.0 | 9.0 | 0.00 | 0.00 | 0.00 | 76 | 1016.6 |
| 20260504172043 | 63 | 200 | 2.0 | 9.0 | 0.00 | 0.00 | 0.00 | 76 | 1016.5 |
| 20260504171543 | 63 | 172 | 2.0 | 9.0 | 0.00 | 0.00 | 0.00 | 76 | 1016.5 |
| 20260504171043 | 63 | 144 | 6.0 | 10.0 | 0.00 | 0.00 | 0.00 | 76 | 1016.6 |
| 20260504170546 | 63 | 169 | 7.0 | 9.0 | 0.00 | 0.00 | 0.00 | 75 | 1016.5 |
| 20260504151043 | 64 | 193 | 5.0 | 10.0 | 0.00 | 0.00 | 0.00 | 71 | 1016.7 |
| 20260504150543 | 64 | 160 | 6.0 | 11.0 | 0.00 | 0.00 | 0.00 | 74 | 1016.7 |
| 20260504141046 | 64 | 200 | 2.0 | 10.0 | 0.00 | 0.00 | 0.00 | 69 | 1017.0 |
| 20260504140543 | 65 | 213 | 3.0 | 10.0 | 0.00 | 0.00 | 0.00 | 71 | 1017.0 |
| 20260504130543 | 65 | 165 | 9.0 | 12.0 | 0.00 | 0.00 | 0.00 | 66 | 1017.5 |
| 20260504110546 | 66 | 180 | 6.0 | 11.0 | 0.00 | 0.00 | 0.00 | 58 | 1018.2 |
| 20260504100543 | 68 | 180 | 3.0 | 8.0 | 0.00 | 0.00 | 0.00 | 58 | 1018.4 |
| 20260504081543 | 65 | 108 | 1.0 | 10.0 | 0.00 | 0.00 | 0.00 | 68 | 1018.6 |
| 20260504081046 | 65 | 163 | 5.0 | 8.0 | 0.00 | 0.00 | 0.00 | 69 | 1018.6 |
| 20260504080543 | 64 | 158 | 6.0 | 11.0 | 0.00 | 0.00 | 0.00 | 69 | 1018.7 |
| 20260504050543 | 58 | 74 | 3.0 | 4.0 | 0.00 | 0.00 | 0.00 | 78 | 1017.5 |
| 20260504045546 | 57 | 11 | 3.0 | 3.0 | 0.00 | 0.00 | 0.00 | 78 | 1017.6 |
| 20260504045046 | 57 | 11 | 1.0 | 2.0 | 0.00 | 0.00 | 0.00 | 79 | 1017.6 |
| 20260504044543 | 56 | 11 | 1.0 | 1.0 | 0.00 | 0.00 | 0.00 | 80 | 1017.6 |
| 20260504044043 | 55 | 11 | 0.0 | 2.0 | 0.00 | 0.00 | 0.00 | 80 | 1017.5 |
| 20260504043543 | 55 | 11 | 0.0 | 2.0 | 0.00 | 0.00 | 0.00 | 80 | 1017.5 |
| 20260504043046 | 55 | 11 | 2.0 | 3.0 | 0.00 | 0.00 | 0.00 | 80 | 1017.5 |
| 20260504042543 | 54 | 11 | 0.0 | 2.0 | 0.00 | 0.00 | 0.00 | 81 | 1017.4 |
| 20260504042043 | 54 | 11 | 0.0 | 1.0 | 0.00 | 0.00 | 0.00 | 81 | 1017.4 |
| 20260504041543 | 54 | 11 | 0.0 | 1.0 | 0.00 | 0.00 | 0.00 | 80 | 1017.4 |
| 20260504041043 | 54 | 11 | 1.0 | 2.0 | 0.00 | 0.00 | 0.00 | 80 | 1017.4 |
| 20260504040543 | 54 | 11 | 0.0 | 1.0 | 0.00 | 0.00 | 0.00 | 80 | 1017.4 |
| 20260504040043 | 54 | 11 | 0.0 | 2.0 | 0.00 | 0.00 | 0.00 | 80 | 1017.4 |
| 20260504035546 | 54 | 11 | 0.0 | 3.0 | 0.00 | 0.00 | 0.00 | 80 | 1017.4 |
| 20260504035043 | 54 | 11 | 2.0 | 3.0 | 0.00 | 0.00 | 0.00 | 80 | 1017.4 |